Time,TemperatureF,DewpointF,PressureIn,WindDirection,WindDirectionDegrees,WindSpeedMPH,WindSpeedGustMPH,Humidity,HourlyPrecipIn,Conditions,Clouds,dailyrainin,SoftwareType,DateUTC
2013-09-05 00:09:00,73.2,72.0,29.81,ESE,112,0.0,-999.0,96,-99.99,,,0.00,Acu-Link.com,2013-09-05 04:09:00,
2013-09-05 00:25:00,73.0,71.8,29.80,SE,135,1.1,-999.0,96,-99.99,,,0.00,Acu-Link.com,2013-09-05 04:25:00,
2013-09-05 00:40:00,73.4,71.9,29.81,NW,315,0.0,-999.0,95,-99.99,,,0.00,Acu-Link.com,2013-09-05 04:40:00,
2013-09-05 00:55:00,73.8,72.3,29.81,East,90,0.0,-999.0,95,-99.99,,,0.00,Acu-Link.com,2013-09-05 04:55:00,
2013-09-05 01:10:00,73.6,72.1,29.80,SSE,157,0.0,-999.0,95,-99.99,,,0.00,Acu-Link.com,2013-09-05 05:10:00,
2013-09-05 01:26:00,73.2,71.4,29.80,SE,135,0.0,-999.0,94,-99.99,,,0.00,Acu-Link.com,2013-09-05 05:26:00,
2013-09-05 01:41:00,73.2,71.7,29.80,SSE,157,0.0,-999.0,95,-99.99,,,0.00,Acu-Link.com,2013-09-05 05:41:00,
2013-09-05 01:56:00,73.8,72.3,29.81,ESE,112,0.0,-999.0,95,-99.99,,,0.00,Acu-Link.com,2013-09-05 05:56:00,
2013-09-05 02:12:00,73.8,72.0,29.80,ESE,112,0.0,-999.0,94,-99.99,,,0.00,Acu-Link.com,2013-09-05 06:12:00,
2013-09-05 02:27:00,72.7,71.2,29.80,ESE,112,0.0,-999.0,95,-99.99,,,0.00,Acu-Link.com,2013-09-05 06:27:00,
2013-09-05 02:42:00,72.3,71.1,29.80,East,90,0.0,-999.0,96,-99.99,,,0.00,Acu-Link.com,2013-09-05 06:42:00,
2013-09-05 02:58:00,72.7,71.2,29.80,SE,135,0.0,-999.0,95,-99.99,,,0.00,Acu-Link.com,2013-09-05 06:58:00,
2013-09-05 03:13:00,72.7,71.5,29.79,ESE,112,0.0,-999.0,96,-99.99,,,0.00,Acu-Link.com,2013-09-05 07:13:00,
2013-09-05 03:28:00,72.5,71.3,29.80,SE,135,0.0,-999.0,96,-99.99,,,0.00,Acu-Link.com,2013-09-05 07:28:00,
2013-09-05 03:43:00,72.7,71.5,29.80,SE,135,0.0,-999.0,96,-99.99,,,0.00,Acu-Link.com,2013-09-05 07:43:00,
2013-09-05 03:58:00,72.9,71.4,29.80,ESE,112,0.0,-999.0,95,-99.99,,,0.00,Acu-Link.com,2013-09-05 07:58:00,
2013-09-05 04:14:00,72.7,71.2,29.80,SE,135,0.0,-999.0,95,-99.99,,,0.00,Acu-Link.com,2013-09-05 08:14:00,
2013-09-05 04:30:00,73.0,71.2,29.80,WNW,292,1.7,-999.0,94,-99.99,,,0.00,Acu-Link.com,2013-09-05 08:30:00,
2013-09-05 04:45:00,72.9,71.1,29.80,SE,135,0.0,-999.0,94,-99.99,,,0.00,Acu-Link.com,2013-09-05 08:45:00,
2013-09-05 05:00:00,73.2,71.0,29.81,East,90,0.0,-999.0,93,-99.99,,,0.00,Acu-Link.com,2013-09-05 09:00:00,
2013-09-05 05:15:00,72.5,71.0,29.81,SW,225,0.0,-999.0,95,-99.99,,,0.00,Acu-Link.com,2013-09-05 09:15:00,
2013-09-05 05:30:00,72.5,71.0,29.81,SE,135,0.0,-999.0,95,-99.99,,,0.00,Acu-Link.com,2013-09-05 09:30:00,
2013-09-05 05:46:00,72.7,71.2,29.81,South,180,0.0,-999.0,95,-99.99,,,0.00,Acu-Link.com,2013-09-05 09:46:00,
2013-09-05 06:01:00,73.2,71.4,29.81,WNW,292,0.0,-999.0,94,-99.99,,,0.00,Acu-Link.com,2013-09-05 10:01:00,
2013-09-05 06:16:00,74.1,71.9,29.82,NW,315,0.0,-999.0,93,-99.99,,,0.00,Acu-Link.com,2013-09-05 10:16:00,
2013-09-05 06:31:00,73.2,71.4,29.82,NE,45,2.7,-999.0,94,-99.99,,,0.00,Acu-Link.com,2013-09-05 10:31:00,
2013-09-05 06:47:00,73.4,71.2,29.83,SE,135,0.0,-999.0,93,-99.99,,,0.00,Acu-Link.com,2013-09-05 10:47:00,
2013-09-05 07:02:00,73.2,71.4,29.83,SSE,157,1.1,-999.0,94,-99.99,,,0.00,Acu-Link.com,2013-09-05 11:02:00,
2013-09-05 07:17:00,73.4,71.6,29.83,South,180,0.0,-999.0,94,-99.99,,,0.00,Acu-Link.com,2013-09-05 11:17:00,
2013-09-05 07:33:00,73.4,71.6,29.83,SSE,157,0.0,-999.0,94,-99.99,,,0.00,Acu-Link.com,2013-09-05 11:33:00,
2013-09-05 07:48:00,73.6,72.1,29.84,East,90,0.0,-999.0,95,-99.99,,,0.00,Acu-Link.com,2013-09-05 11:48:00,
2013-09-05 08:04:00,74.3,72.8,29.84,SW,225,0.0,-999.0,95,-99.99,,,0.00,Acu-Link.com,2013-09-05 12:04:00,
2013-09-05 08:19:00,76.5,74.0,29.85,South,180,0.0,-999.0,92,-99.99,,,0.00,Acu-Link.com,2013-09-05 12:19:00,
2013-09-05 08:34:00,78.1,75.9,29.85,SSW,202,0.0,-999.0,93,-99.99,,,0.00,Acu-Link.com,2013-09-05 12:34:00,
2013-09-05 08:49:00,81.5,76.9,29.85,NW,315,1.7,-999.0,86,-99.99,,,0.00,Acu-Link.com,2013-09-05 12:49:00,
2013-09-05 09:04:00,81.5,76.9,29.85,WNW,292,1.1,-999.0,86,-99.99,,,0.00,Acu-Link.com,2013-09-05 13:04:00,
2013-09-05 09:20:00,83.8,78.8,29.85,East,90,2.2,-999.0,85,-99.99,,,0.00,Acu-Link.com,2013-09-05 13:20:00,
2013-09-05 09:35:00,85.5,80.1,29.85,SSE,157,1.7,-999.0,84,-99.99,,,0.00,Acu-Link.com,2013-09-05 13:35:00,
2013-09-05 09:50:00,85.3,80.3,29.85,NW,315,0.0,-999.0,85,-99.99,,,0.00,Acu-Link.com,2013-09-05 13:50:00,
2013-09-05 10:06:00,86.2,80.4,29.85,NW,315,0.0,-999.0,83,-99.99,,,0.00,Acu-Link.com,2013-09-05 14:06:00,
2013-09-05 10:21:00,86.9,81.1,29.86,SW,225,0.0,-999.0,83,-99.99,,,0.00,Acu-Link.com,2013-09-05 14:21:00,
2013-09-05 10:36:00,88.2,80.4,29.86,ESE,112,1.7,-999.0,78,-99.99,,,0.00,Acu-Link.com,2013-09-05 14:36:00,
2013-09-05 10:51:00,87.6,80.6,29.86,ESE,112,2.7,-999.0,80,-99.99,,,0.00,Acu-Link.com,2013-09-05 14:51:00,
2013-09-05 11:06:00,87.8,79.7,29.85,South,180,1.1,-999.0,77,-99.99,,,0.00,Acu-Link.com,2013-09-05 15:06:00,
2013-09-05 11:21:00,90.5,81.5,29.86,ENE,67,1.1,-999.0,75,-99.99,,,0.00,Acu-Link.com,2013-09-05 15:21:00,
2013-09-05 11:37:00,90.3,81.3,29.85,WNW,292,2.7,-999.0,75,-99.99,,,0.00,Acu-Link.com,2013-09-05 15:37:00,
2013-09-05 11:52:00,88.3,78.9,29.85,ENE,67,1.7,-999.0,74,-99.99,,,0.00,Acu-Link.com,2013-09-05 15:52:00,
2013-09-05 12:07:00,90.3,80.4,29.85,SE,135,2.2,-999.0,73,-99.99,,,0.00,Acu-Link.com,2013-09-05 16:07:00,
2013-09-05 12:22:00,91.2,78.7,29.84,SSE,157,1.7,-999.0,67,-99.99,,,0.00,Acu-Link.com,2013-09-05 16:22:00,
2013-09-05 12:37:00,90.1,73.8,29.83,SSE,157,3.2,-999.0,59,-99.99,,,0.00,Acu-Link.com,2013-09-05 16:37:00,
2013-09-05 12:53:00,90.3,74.0,29.83,SE,135,2.2,-999.0,59,-99.99,,,0.00,Acu-Link.com,2013-09-05 16:53:00,
2013-09-05 13:08:00,90.0,73.2,29.82,SE,135,1.7,-999.0,58,-99.99,,,0.00,Acu-Link.com,2013-09-05 17:08:00,
2013-09-05 13:23:00,91.9,75.0,29.82,ESE,112,2.2,-999.0,58,-99.99,,,0.00,Acu-Link.com,2013-09-05 17:23:00,
2013-09-05 13:39:00,93.6,72.1,29.81,NNW,337,1.7,-999.0,50,-99.99,,,0.00,Acu-Link.com,2013-09-05 17:39:00,
2013-09-05 13:54:00,94.5,72.9,29.81,NE,45,2.2,-999.0,50,-99.99,,,0.00,Acu-Link.com,2013-09-05 17:54:00,
2013-09-05 14:09:00,93.6,73.8,29.80,NNW,337,1.7,-999.0,53,-99.99,,,0.00,Acu-Link.com,2013-09-05 18:09:00,
2013-09-05 14:25:00,91.9,72.3,29.79,East,90,3.7,-999.0,53,-99.99,,,0.00,Acu-Link.com,2013-09-05 18:25:00,
2013-09-05 14:40:00,93.9,73.6,29.78,West,270,0.0,-999.0,52,-99.99,,,0.00,Acu-Link.com,2013-09-05 18:40:00,
2013-09-05 14:55:00,95.0,72.8,29.77,SE,135,3.2,-999.0,49,-99.99,,,0.00,Acu-Link.com,2013-09-05 18:55:00,
2013-09-05 15:10:00,95.4,74.9,29.75,ESE,112,2.7,-999.0,52,-99.99,,,0.00,Acu-Link.com,2013-09-05 19:10:00,
2013-09-05 15:25:00,95.2,75.3,29.74,SSE,157,1.1,-999.0,53,-99.99,,,0.00,Acu-Link.com,2013-09-05 19:25:00,
2013-09-05 15:41:00,95.2,71.1,29.73,East,90,3.2,-999.0,46,-99.99,,,0.00,Acu-Link.com,2013-09-05 19:41:00,
2013-09-05 15:56:00,93.4,71.3,29.72,West,270,1.7,-999.0,49,-99.99,,,0.00,Acu-Link.com,2013-09-05 19:56:00,
2013-09-05 16:12:00,94.1,72.6,29.72,ENE,67,1.7,-999.0,50,-99.99,,,0.00,Acu-Link.com,2013-09-05 20:12:00,
2013-09-05 16:27:00,94.1,71.4,29.71,NNW,337,1.7,-999.0,48,-99.99,,,0.00,Acu-Link.com,2013-09-05 20:27:00,
2013-09-05 16:42:00,94.3,70.9,29.72,ESE,112,2.2,-999.0,47,-99.99,,,0.00,Acu-Link.com,2013-09-05 20:42:00,
2013-09-05 16:57:00,93.9,71.8,29.71,ESE,112,2.7,-999.0,49,-99.99,,,0.00,Acu-Link.com,2013-09-05 20:57:00,
2013-09-05 17:13:00,94.3,70.9,29.71,East,90,2.7,-999.0,47,-99.99,,,0.00,Acu-Link.com,2013-09-05 21:13:00,
2013-09-05 17:28:00,93.2,74.0,29.72,East,90,2.7,-999.0,54,-99.99,,,0.00,Acu-Link.com,2013-09-05 21:28:00,
2013-09-05 17:43:00,85.1,72.4,29.73,NE,45,14.0,-999.0,66,-99.99,,,0.10,Acu-Link.com,2013-09-05 21:43:00,
2013-09-05 17:59:00,80.6,68.6,29.72,South,180,1.7,-999.0,67,-99.99,,,0.12,Acu-Link.com,2013-09-05 21:59:00,
2013-09-05 18:14:00,81.1,69.9,29.72,SE,135,3.2,-999.0,69,-99.99,,,0.12,Acu-Link.com,2013-09-05 22:14:00,
2013-09-05 18:29:00,81.7,70.9,29.71,East,90,1.7,-999.0,70,-99.99,,,0.12,Acu-Link.com,2013-09-05 22:29:00,
2013-09-05 18:44:00,80.8,70.9,29.75,NW,315,0.0,-999.0,72,-99.99,,,0.12,Acu-Link.com,2013-09-05 22:44:00,
2013-09-05 19:00:00,79.2,68.6,29.75,NNW,337,1.7,-999.0,70,-99.99,,,0.12,Acu-Link.com,2013-09-05 23:00:00,
2013-09-05 19:15:00,77.5,68.1,29.75,SE,135,2.2,-999.0,73,-99.99,,,0.13,Acu-Link.com,2013-09-05 23:15:00,
2013-09-05 19:30:00,78.4,69.4,29.76,NW,315,1.7,-999.0,74,-99.99,,,0.13,Acu-Link.com,2013-09-05 23:30:00,
2013-09-05 19:45:00,77.0,68.8,29.76,South,180,0.0,-999.0,76,-99.99,,,0.13,Acu-Link.com,2013-09-05 23:45:00,
2013-09-05 20:01:00,76.6,68.5,29.76,SE,135,0.0,-999.0,76,-99.99,,,0.13,Acu-Link.com,2013-09-06 00:01:00,
2013-09-05 20:16:00,77.0,67.7,29.75,ESE,112,0.0,-999.0,73,-99.99,,,0.13,Acu-Link.com,2013-09-06 00:16:00,
2013-09-05 20:31:00,76.1,67.6,29.77,SSE,157,1.1,-999.0,75,-99.99,,,0.13,Acu-Link.com,2013-09-06 00:31:00,
2013-09-05 20:47:00,77.7,68.7,29.77,ESE,112,1.1,-999.0,74,-99.99,,,0.13,Acu-Link.com,2013-09-06 00:47:00,
2013-09-05 21:02:00,78.3,68.5,29.78,NNW,337,1.1,-999.0,72,-99.99,,,0.13,Acu-Link.com,2013-09-06 01:02:00,
2013-09-05 21:17:00,76.3,68.9,29.78,ESE,112,0.0,-999.0,78,-99.99,,,0.13,Acu-Link.com,2013-09-06 01:17:00,
2013-09-05 21:32:00,76.1,68.4,29.79,SE,135,0.0,-999.0,77,-99.99,,,0.13,Acu-Link.com,2013-09-06 01:32:00,
2013-09-05 21:48:00,75.7,68.3,29.79,ENE,67,0.0,-999.0,78,-99.99,,,0.13,Acu-Link.com,2013-09-06 01:48:00,
2013-09-05 22:03:00,76.1,68.4,29.79,ESE,112,0.0,-999.0,77,-99.99,,,0.13,Acu-Link.com,2013-09-06 02:03:00,
2013-09-05 22:18:00,75.9,68.5,29.80,SSE,157,0.0,-999.0,78,-99.99,,,0.13,Acu-Link.com,2013-09-06 02:18:00,
2013-09-05 22:34:00,76.1,69.1,29.80,NNW,337,0.0,-999.0,79,-99.99,,,0.13,Acu-Link.com,2013-09-06 02:34:00,
2013-09-05 22:49:00,75.7,68.7,29.80,ESE,112,0.0,-999.0,79,-99.99,,,0.13,Acu-Link.com,2013-09-06 02:49:00,
2013-09-05 23:05:00,75.7,69.1,29.80,SE,135,0.0,-999.0,80,-99.99,,,0.13,Acu-Link.com,2013-09-06 03:05:00,
2013-09-05 23:20:00,75.4,70.6,29.79,East,90,0.0,-999.0,85,-99.99,,,0.13,Acu-Link.com,2013-09-06 03:20:00,
2013-09-05 23:35:00,75.0,70.2,29.79,SE,135,0.0,-999.0,85,-99.99,,,0.13,Acu-Link.com,2013-09-06 03:35:00,
2013-09-05 23:50:00,76.1,71.3,29.79,West,270,0.0,-999.0,85,-99.99,,,0.13,Acu-Link.com,2013-09-06 03:50:00,